Weather in Makanchi

Kazakhstan     46°46′53″N   82°01′25″E
temp.,
°C
wind,
m/s
gust,
m/s
humid.,
%
clouds,
%
prec.,
mm/h
press.,
hPa
HPBL,
m
12 april, mon
mon1200:00+11ene613250 0.0 1025270
03:00+10e816250 0.0 1025349
06:00+10e815250 0.0 1026327
09:00+15e1013210 0.0 10261066
12:00+18e1113140 0.0 10251678
15:00+19e1113120 0.0 10241987
18:00+18e912140 0.0 1025932
21:00+13e713190 0.0 1026278
13 april, tue
tue1300:00+12e814210 0.0 1025328
03:00+11e714220 0.0 1025327
06:00+10ene714220 0.0 1024304
09:00+15e1012160 0.0 1023999
12:00+19e78130 0.0 10231528
15:00+21ne23100 0.0 10211930
18:00+20wnw12170 0.0 1021703
21:00+13nne363729 0.0 1024114
14 april, wed
wed1400:00+10ene234016 0.0 102636
03:00+9n22425 0.0 102618
06:00+8ese22400 0.0 102620
09:00+12e45290 0.0 1027449
12:00+17ne11150 0.0 1024860
15:00+20wnw11120 0.0 10221335
18:00+20wnw22150 0.0 1021815
21:00+13ene12300 0.0 102237
15 april, thu
thu1500:00+11e35330 0.0 102167
03:00+10ene33350 0.0 102031
06:00+9ene34330 0.0 102048
09:00+16e57210 0.0 1019519
12:00+20e45159 0.0 10181330
15:00+22ene231397 0.0 10161836
18:00+21ene22155 0.0 10151020
21:00+16e22220 0.0 101516
16 april, fri
fri1600:00+13e34320 0.0 101539
03:00+13ene49310 0.0 1014140
06:00+11e46340 0.0 101482
09:00+18e911203 0.0 1014791
12:00+22e881639 0.0 10121395
15:00+24e551387 0.0 10102026
18:00+23sw33199 0.0 1010196
21:00+16sw1229100 0.0 101221